| time (UTC) | temp F | wind direction | speed MPH | gust MPH | rain 1hr in | rain 24hr in | rain mn in | humidity % | barometer mb |
| 20260831235516 | 80 | 0.0 | 0.0 | 0.00 | 0.00 | 0.00 | 82 | 1028.2 | |
| 20260831235016 | 81 | 0.0 | 0.0 | 0.00 | 0.00 | 0.00 | 81 | 1028.0 | |
| 20260831234516 | 81 | 0.0 | 0.0 | 0.00 | 0.00 | 0.00 | 81 | 1028.0 | |
| 20260831234016 | 81 | 0.0 | 0.0 | 0.00 | 0.00 | 0.00 | 80 | 1028.0 | |
| 20260831233536 | 82 | 0.0 | 0.0 | 0.00 | 0.00 | 0.00 | 79 | 1028.0 | |
| 20260831233016 | 82 | 0.0 | 0.0 | 0.00 | 0.00 | 0.00 | 79 | 1028.1 | |
| 20260831232516 | 82 | 0.0 | 0.0 | 0.00 | 0.00 | 0.00 | 77 | 1028.2 | |
| 20260831232016 | 83 | 0.0 | 0.0 | 0.00 | 0.00 | 0.00 | 77 | 1028.1 | |
| 20260831231536 | 83 | 0.0 | 0.0 | 0.00 | 0.00 | 0.00 | 76 | 1028.0 | |
| 20260831231016 | 83 | 0.0 | 0.0 | 0.00 | 0.00 | 0.00 | 76 | 1028.0 | |
| 20260831230516 | 84 | 0.0 | 0.0 | 0.00 | 0.00 | 0.00 | 76 | 1028.0 | |
| 20260831230036 | 84 | 0.0 | 0.0 | 0.00 | 0.00 | 0.00 | 75 | 1028.0 | |
| 20260831225516 | 84 | 0.0 | 0.0 | 0.00 | 0.00 | 0.00 | 75 | 1028.0 | |
| 20260831225016 | 85 | 0.0 | 0.0 | 0.00 | 0.00 | 0.00 | 73 | 1028.0 | |
| 20260831224516 | 85 | 0.0 | 0.0 | 0.00 | 0.00 | 0.00 | 72 | 1028.1 | |
| 20260831224057 | 85 | 0.0 | 0.0 | 0.00 | 0.00 | 0.00 | 72 | 1028.1 | |
| 20260831223556 | 85 | 0.0 | 0.0 | 0.00 | 0.00 | 0.00 | 71 | 1028.1 | |
| 20260831223016 | 85 | 0.0 | 0.0 | 0.00 | 0.00 | 0.00 | 71 | 1028.2 | |
| 20260831222517 | 86 | 0.0 | 0.0 | 0.00 | 0.00 | 0.00 | 69 | 1028.1 | |
| 20260831222036 | 86 | 0.0 | 0.0 | 0.00 | 0.00 | 0.00 | 67 | 1028.1 | |
| 20260831221516 | 86 | 0.0 | 0.0 | 0.00 | 0.00 | 0.00 | 66 | 1028.1 | |
| 20260831221016 | 86 | 0.0 | 0.0 | 0.00 | 0.00 | 0.00 | 66 | 1028.1 | |
| 20260831220516 | 86 | 0.0 | 0.0 | 0.00 | 0.00 | 0.00 | 65 | 1028.0 | |
| 20260831220016 | 87 | 0.0 | 0.0 | 0.00 | 0.00 | 0.00 | 64 | 1028.0 | |
| 20260831215516 | 87 | 0.0 | 0.0 | 0.00 | 0.00 | 0.00 | 64 | 1028.0 | |
| 20260831215036 | 87 | 0.0 | 0.0 | 0.00 | 0.00 | 0.00 | 65 | 1028.0 | |
| 20260831214516 | 87 | 0.0 | 0.0 | 0.00 | 0.00 | 0.00 | 65 | 1028.0 | |
| 20260831214016 | 87 | 0.0 | 0.0 | 0.00 | 0.00 | 0.00 | 64 | 1028.0 | |
| 20260831213516 | 88 | 0.0 | 0.0 | 0.00 | 0.00 | 0.00 | 64 | 1028.1 | |
| 20260831213016 | 88 | 0.0 | 0.0 | 0.00 | 0.00 | 0.00 | 63 | 1028.0 | |
| 20260831212536 | 88 | 0.0 | 0.0 | 0.00 | 0.00 | 0.00 | 61 | 1028.0 | |
| 20260831212016 | 88 | 0.0 | 2.0 | 0.00 | 0.00 | 0.00 | 62 | 1028.1 | |
| 20260831211516 | 88 | 155 | 0.0 | 0.0 | 0.00 | 0.00 | 0.00 | 62 | 1028.0 |
| 20260831211016 | 88 | 0.0 | 1.0 | 0.00 | 0.00 | 0.00 | 60 | 1027.9 | |
| 20260831210537 | 88 | 0.0 | 1.0 | 0.00 | 0.00 | 0.00 | 60 | 1027.9 | |
| 20260831210036 | 88 | 0.0 | 0.0 | 0.00 | 0.00 | 0.00 | 59 | 1028.0 | |
| 20260831205518 | 88 | 0.0 | 0.0 | 0.00 | 0.00 | 0.00 | 60 | 1028.2 | |
| 20260831205016 | 88 | 0.0 | 1.0 | 0.00 | 0.00 | 0.00 | 60 | 1028.2 | |
| 20260831204516 | 88 | 0.0 | 0.0 | 0.00 | 0.00 | 0.00 | 57 | 1028.1 | |
| 20260831204036 | 88 | 0.0 | 0.0 | 0.00 | 0.00 | 0.00 | 59 | 1028.1 | |
| 20260831203516 | 88 | 0.0 | 1.0 | 0.00 | 0.00 | 0.00 | 60 | 1028.1 | |
| 20260831203016 | 88 | 0.0 | 0.0 | 0.00 | 0.00 | 0.00 | 58 | 1028.1 | |
| 20260831202536 | 88 | 0.0 | 0.0 | 0.00 | 0.00 | 0.00 | 60 | 1028.2 | |
| 20260831202036 | 89 | 0.0 | 0.0 | 0.00 | 0.00 | 0.00 | 58 | 1028.2 | |
| 20260831201556 | 89 | 0.0 | 0.0 | 0.00 | 0.00 | 0.00 | 59 | 1028.2 | |
| 20260831201036 | 89 | 0.0 | 0.0 | 0.00 | 0.00 | 0.00 | 57 | 1028.1 | |
| 20260831200537 | 89 | 0.0 | 2.0 | 0.00 | 0.00 | 0.00 | 56 | 1028.1 | |
| 20260831200016 | 88 | 0.0 | 1.0 | 0.00 | 0.00 | 0.00 | 57 | 1028.0 | |
| 20260831195516 | 89 | 0.0 | 1.0 | 0.00 | 0.00 | 0.00 | 61 | 1028.2 | |
| 20260831195016 | 89 | 0.0 | 1.0 | 0.00 | 0.00 | 0.00 | 58 | 1028.2 | |
| 20260831194518 | 89 | 0.0 | 1.0 | 0.00 | 0.00 | 0.00 | 60 | 1028.2 | |
| 20260831194016 | 88 | 0.0 | 3.0 | 0.00 | 0.00 | 0.00 | 60 | 1028.3 | |
| 20260831193536 | 88 | 129 | 0.0 | 0.0 | 0.00 | 0.00 | 0.00 | 58 | 1028.2 |
| 20260831193016 | 88 | 0.0 | 2.0 | 0.00 | 0.00 | 0.00 | 56 | 1028.3 | |
| 20260831192516 | 88 | 0.0 | 0.0 | 0.00 | 0.00 | 0.00 | 60 | 1028.5 | |
| 20260831192016 | 88 | 0.0 | 1.0 | 0.00 | 0.00 | 0.00 | 61 | 1028.6 | |
| 20260831191516 | 89 | 0.0 | 3.0 | 0.00 | 0.00 | 0.00 | 61 | 1028.6 | |
| 20260831191036 | 89 | 0.0 | 2.0 | 0.00 | 0.00 | 0.00 | 59 | 1028.7 | |
| 20260831190516 | 89 | 135 | 1.0 | 2.0 | 0.00 | 0.00 | 0.00 | 57 | 1028.8 |
| 20260831190016 | 88 | 0.0 | 1.0 | 0.00 | 0.00 | 0.00 | 58 | 1028.8 | |
| 20260831185516 | 89 | 0.0 | 1.0 | 0.00 | 0.00 | 0.00 | 62 | 1028.8 | |
| 20260831185016 | 88 | 0.0 | 2.0 | 0.00 | 0.00 | 0.00 | 62 | 1028.9 | |
| 20260831184556 | 88 | 0.0 | 1.0 | 0.00 | 0.00 | 0.00 | 60 | 1028.9 | |
| 20260831184016 | 89 | 0.0 | 1.0 | 0.00 | 0.00 | 0.00 | 58 | 1028.9 | |
| 20260831183516 | 89 | 0.0 | 2.0 | 0.00 | 0.00 | 0.00 | 60 | 1029.0 | |
| 20260831183036 | 89 | 0.0 | 2.0 | 0.00 | 0.00 | 0.00 | 61 | 1029.0 | |
| 20260831182516 | 89 | 0.0 | 1.0 | 0.00 | 0.00 | 0.00 | 59 | 1029.1 | |
| 20260831182016 | 89 | 0.0 | 1.0 | 0.00 | 0.00 | 0.00 | 63 | 1029.1 | |
| 20260831181536 | 88 | 0.0 | 1.0 | 0.00 | 0.00 | 0.00 | 64 | 1029.1 | |
| 20260831181016 | 88 | 0.0 | 1.0 | 0.00 | 0.00 | 0.00 | 65 | 1029.2 | |
| 20260831180516 | 89 | 0.0 | 1.0 | 0.00 | 0.00 | 0.00 | 61 | 1029.3 | |
| 20260831180036 | 89 | 0.0 | 1.0 | 0.00 | 0.00 | 0.00 | 61 | 1029.3 | |
| 20260831175516 | 89 | 135 | 1.0 | 3.0 | 0.00 | 0.00 | 0.00 | 62 | 1029.3 |
| 20260831175037 | 89 | 0.0 | 1.0 | 0.00 | 0.00 | 0.00 | 65 | 1029.4 | |
| 20260831174516 | 88 | 0.0 | 3.0 | 0.00 | 0.00 | 0.00 | 63 | 1029.3 | |
| 20260831174016 | 88 | 0.0 | 1.0 | 0.00 | 0.00 | 0.00 | 64 | 1029.4 | |
| 20260831173516 | 88 | 0.0 | 2.0 | 0.00 | 0.00 | 0.00 | 65 | 1029.4 | |
| 20260831173016 | 89 | 0.0 | 2.0 | 0.00 | 0.00 | 0.00 | 66 | 1029.5 | |
| 20260831172516 | 89 | 0.0 | 1.0 | 0.00 | 0.00 | 0.00 | 66 | 1029.4 | |
| 20260831172016 | 89 | 158 | 1.0 | 3.0 | 0.00 | 0.00 | 0.00 | 66 | 1029.5 |
| 20260831171516 | 89 | 135 | 2.0 | 4.0 | 0.00 | 0.00 | 0.00 | 66 | 1029.5 |
| 20260831171036 | 89 | 135 | 1.0 | 4.0 | 0.00 | 0.00 | 0.00 | 68 | 1029.6 |
| 20260831170516 | 88 | 135 | 1.0 | 3.0 | 0.00 | 0.00 | 0.00 | 66 | 1029.6 |
| 20260831170016 | 89 | 338 | 1.0 | 2.0 | 0.00 | 0.00 | 0.00 | 65 | 1029.7 |
| 20260831165516 | 90 | 135 | 1.0 | 4.0 | 0.00 | 0.00 | 0.00 | 66 | 1029.7 |
| 20260831165056 | 89 | 135 | 2.0 | 5.0 | 0.00 | 0.00 | 0.00 | 68 | 1029.6 |
| 20260831164516 | 89 | 135 | 2.0 | 3.0 | 0.00 | 0.00 | 0.00 | 67 | 1029.7 |
| 20260831164017 | 89 | 135 | 1.0 | 4.0 | 0.00 | 0.00 | 0.00 | 66 | 1029.8 |
| 20260831163516 | 89 | 135 | 1.0 | 3.0 | 0.00 | 0.00 | 0.00 | 66 | 1029.8 |
| 20260831163016 | 89 | 135 | 1.0 | 4.0 | 0.00 | 0.00 | 0.00 | 66 | 1029.9 |
| 20260831162516 | 89 | 135 | 1.0 | 3.0 | 0.00 | 0.00 | 0.00 | 66 | 1030.0 |
| 20260831162036 | 89 | 135 | 1.0 | 3.0 | 0.00 | 0.00 | 0.00 | 66 | 1030.0 |
| 20260831161516 | 89 | 0.0 | 1.0 | 0.00 | 0.00 | 0.00 | 67 | 1030.1 | |
| 20260831161016 | 88 | 0.0 | 0.0 | 0.00 | 0.00 | 0.00 | 67 | 1030.1 | |
| 20260831160516 | 88 | 135 | 1.0 | 3.0 | 0.00 | 0.00 | 0.00 | 69 | 1030.2 |
| 20260831160056 | 87 | 0.0 | 2.0 | 0.00 | 0.00 | 0.00 | 71 | 1030.2 | |
| 20260831155516 | 87 | 135 | 1.0 | 4.0 | 0.00 | 0.00 | 0.00 | 70 | 1030.2 |
| 20260831155036 | 88 | 135 | 1.0 | 4.0 | 0.00 | 0.00 | 0.00 | 72 | 1030.4 |
| 20260831154516 | 87 | 0.0 | 2.0 | 0.00 | 0.00 | 0.00 | 70 | 1030.4 | |
| 20260831154016 | 86 | 158 | 1.0 | 2.0 | 0.00 | 0.00 | 0.00 | 73 | 1030.4 |
| 20260831153516 | 86 | 135 | 1.0 | 3.0 | 0.00 | 0.00 | 0.00 | 75 | 1030.3 |
| 20260831153016 | 85 | 135 | 2.0 | 3.0 | 0.00 | 0.00 | 0.00 | 74 | 1030.3 |
| 20260831152516 | 85 | 23 | 1.0 | 2.0 | 0.00 | 0.00 | 0.00 | 74 | 1030.4 |
| 20260831152016 | 84 | 135 | 1.0 | 2.0 | 0.00 | 0.00 | 0.00 | 75 | 1030.4 |
| 20260831151516 | 84 | 315 | 1.0 | 2.0 | 0.00 | 0.00 | 0.00 | 76 | 1030.5 |
| 20260831151016 | 84 | 135 | 1.0 | 3.0 | 0.00 | 0.00 | 0.00 | 76 | 1030.5 |
| 20260831150516 | 84 | 0.0 | 1.0 | 0.00 | 0.00 | 0.00 | 77 | 1030.5 | |
| 20260831150016 | 83 | 0.0 | 0.0 | 0.00 | 0.00 | 0.00 | 78 | 1030.5 | |
| 20260831145516 | 83 | 0.0 | 1.0 | 0.00 | 0.00 | 0.00 | 79 | 1030.5 | |
| 20260831145016 | 82 | 0.0 | 2.0 | 0.00 | 0.00 | 0.00 | 80 | 1030.4 | |
| 20260831144536 | 82 | 0.0 | 1.0 | 0.00 | 0.00 | 0.00 | 79 | 1030.3 | |
| 20260831144016 | 82 | 0.0 | 0.0 | 0.00 | 0.00 | 0.00 | 80 | 1030.4 | |
| 20260831143516 | 81 | 0.0 | 0.0 | 0.00 | 0.00 | 0.00 | 81 | 1030.4 | |
| 20260831143036 | 81 | 0.0 | 0.0 | 0.00 | 0.00 | 0.00 | 81 | 1030.4 | |
| 20260831142516 | 81 | 0.0 | 0.0 | 0.00 | 0.00 | 0.00 | 80 | 1030.3 | |
| 20260831142016 | 81 | 0.0 | 0.0 | 0.00 | 0.00 | 0.00 | 82 | 1030.2 | |
| 20260831141516 | 81 | 0.0 | 0.0 | 0.00 | 0.00 | 0.00 | 82 | 1030.2 | |
| 20260831141016 | 81 | 0.0 | 0.0 | 0.00 | 0.00 | 0.00 | 81 | 1030.2 | |
| 20260831140516 | 81 | 0.0 | 0.0 | 0.00 | 0.00 | 0.00 | 81 | 1030.2 | |
| 20260831140016 | 81 | 0.0 | 0.0 | 0.00 | 0.00 | 0.00 | 80 | 1030.1 | |
| 20260831135516 | 81 | 0.0 | 0.0 | 0.00 | 0.00 | 0.00 | 80 | 1030.1 | |
| 20260831135016 | 81 | 0.0 | 0.0 | 0.00 | 0.00 | 0.00 | 81 | 1030.2 | |
| 20260831134536 | 81 | 0.0 | 0.0 | 0.00 | 0.00 | 0.00 | 79 | 1030.2 | |
| 20260831134016 | 81 | 0.0 | 0.0 | 0.00 | 0.00 | 0.00 | 79 | 1030.2 | |
| 20260831133516 | 81 | 0.0 | 0.0 | 0.00 | 0.00 | 0.00 | 79 | 1030.3 | |
| 20260831133016 | 81 | 0.0 | 0.0 | 0.00 | 0.00 | 0.00 | 79 | 1030.2 | |
| 20260831132516 | 82 | 0.0 | 0.0 | 0.00 | 0.00 | 0.00 | 81 | 1030.2 | |
| 20260831132016 | 81 | 0.0 | 0.0 | 0.00 | 0.00 | 0.00 | 82 | 1030.3 | |
| 20260831131516 | 80 | 0.0 | 0.0 | 0.00 | 0.00 | 0.00 | 83 | 1030.2 | |
| 20260831131016 | 80 | 0.0 | 0.0 | 0.00 | 0.00 | 0.00 | 85 | 1030.1 | |
| 20260831130516 | 79 | 0.0 | 0.0 | 0.00 | 0.00 | 0.00 | 85 | 1030.1 | |
| 20260831130016 | 79 | 0.0 | 0.0 | 0.00 | 0.00 | 0.00 | 86 | 1030.0 | |
| 20260831125516 | 78 | 0.0 | 0.0 | 0.00 | 0.00 | 0.00 | 87 | 1030.1 | |
| 20260831125016 | 77 | 0.0 | 0.0 | 0.00 | 0.00 | 0.00 | 87 | 1030.0 | |
| 20260831124516 | 77 | 0.0 | 0.0 | 0.00 | 0.00 | 0.00 | 88 | 1030.0 | |
| 20260831124016 | 76 | 0.0 | 0.0 | 0.00 | 0.00 | 0.00 | 90 | 1030.1 | |
| 20260831123556 | 75 | 0.0 | 0.0 | 0.00 | 0.00 | 0.00 | 90 | 1030.1 | |
| 20260831123016 | 75 | 0.0 | 0.0 | 0.00 | 0.00 | 0.00 | 91 | 1030.1 | |
| 20260831122556 | 74 | 0.0 | 1.0 | 0.00 | 0.00 | 0.00 | 93 | 1030.2 | |
| 20260831122016 | 73 | 0.0 | 1.0 | 0.00 | 0.00 | 0.00 | 93 | 1030.2 | |
| 20260831121516 | 73 | 0.0 | 1.0 | 0.00 | 0.00 | 0.00 | 94 | 1030.2 | |
| 20260831121016 | 72 | 0.0 | 1.0 | 0.00 | 0.00 | 0.00 | 94 | 1030.0 | |
| 20260831120536 | 72 | 0.0 | 1.0 | 0.00 | 0.00 | 0.00 | 94 | 1029.9 | |
| 20260831120016 | 72 | 0.0 | 0.0 | 0.00 | 0.00 | 0.00 | 95 | 1029.9 | |
| 20260831115536 | 71 | 0.0 | 0.0 | 0.00 | 0.00 | 0.00 | 95 | 1029.9 | |
| 20260831115016 | 71 | 0.0 | 0.0 | 0.00 | 0.00 | 0.00 | 94 | 1029.9 | |
| 20260831114516 | 71 | 0.0 | 0.0 | 0.00 | 0.00 | 0.00 | 94 | 1029.8 | |
| 20260831114017 | 71 | 0.0 | 0.0 | 0.00 | 0.00 | 0.00 | 94 | 1029.9 | |
| 20260831113536 | 71 | 0.0 | 0.0 | 0.00 | 0.00 | 0.00 | 94 | 1029.9 | |
| 20260831113016 | 71 | 0.0 | 0.0 | 0.00 | 0.00 | 0.00 | 94 | 1029.9 | |
| 20260831112516 | 71 | 0.0 | 0.0 | 0.00 | 0.00 | 0.00 | 94 | 1029.8 | |
| 20260831112016 | 71 | 0.0 | 0.0 | 0.00 | 0.00 | 0.00 | 94 | 1029.9 | |
| 20260831111516 | 71 | 0.0 | 0.0 | 0.00 | 0.00 | 0.00 | 94 | 1029.8 | |
| 20260831111016 | 71 | 0.0 | 0.0 | 0.00 | 0.00 | 0.00 | 94 | 1029.8 | |
| 20260831110536 | 70 | 0.0 | 0.0 | 0.00 | 0.00 | 0.00 | 94 | 1029.6 | |
| 20260831110016 | 71 | 0.0 | 0.0 | 0.00 | 0.00 | 0.00 | 94 | 1029.6 | |
| 20260831105516 | 71 | 0.0 | 0.0 | 0.00 | 0.00 | 0.00 | 94 | 1029.5 | |
| 20260831105016 | 71 | 0.0 | 0.0 | 0.00 | 0.00 | 0.00 | 94 | 1029.6 | |
| 20260831104516 | 71 | 0.0 | 0.0 | 0.00 | 0.00 | 0.00 | 94 | 1029.5 | |
| 20260831104036 | 71 | 0.0 | 0.0 | 0.00 | 0.00 | 0.00 | 94 | 1029.5 | |
| 20260831103516 | 71 | 0.0 | 0.0 | 0.00 | 0.00 | 0.00 | 94 | 1029.5 | |
| 20260831103016 | 71 | 0.0 | 0.0 | 0.00 | 0.00 | 0.00 | 94 | 1029.4 | |
| 20260831102516 | 71 | 0.0 | 0.0 | 0.00 | 0.00 | 0.00 | 94 | 1029.4 | |
| 20260831102016 | 71 | 0.0 | 0.0 | 0.00 | 0.00 | 0.00 | 94 | 1029.4 | |
| 20260831101516 | 71 | 0.0 | 0.0 | 0.00 | 0.00 | 0.00 | 94 | 1029.4 | |
| 20260831101016 | 71 | 0.0 | 0.0 | 0.00 | 0.00 | 0.00 | 94 | 1029.3 | |
| 20260831100516 | 71 | 0.0 | 0.0 | 0.00 | 0.00 | 0.00 | 94 | 1029.2 | |
| 20260831100036 | 71 | 0.0 | 0.0 | 0.00 | 0.00 | 0.00 | 94 | 1029.3 | |
| 20260831095516 | 71 | 0.0 | 0.0 | 0.00 | 0.00 | 0.00 | 94 | 1029.3 | |
| 20260831095016 | 71 | 0.0 | 0.0 | 0.00 | 0.00 | 0.00 | 94 | 1029.3 | |
| 20260831094516 | 71 | 0.0 | 0.0 | 0.00 | 0.00 | 0.00 | 94 | 1029.4 | |
| 20260831094016 | 71 | 0.0 | 0.0 | 0.00 | 0.00 | 0.00 | 94 | 1029.4 | |
| 20260831093536 | 71 | 0.0 | 0.0 | 0.00 | 0.00 | 0.00 | 94 | 1029.3 | |
| 20260831093016 | 71 | 0.0 | 0.0 | 0.00 | 0.00 | 0.00 | 94 | 1029.2 | |
| 20260831092536 | 71 | 0.0 | 0.0 | 0.00 | 0.00 | 0.00 | 94 | 1029.2 | |
| 20260831092016 | 71 | 0.0 | 0.0 | 0.00 | 0.00 | 0.00 | 94 | 1029.3 | |
| 20260831091516 | 71 | 0.0 | 0.0 | 0.00 | 0.00 | 0.00 | 94 | 1029.3 | |
| 20260831091016 | 71 | 0.0 | 0.0 | 0.00 | 0.00 | 0.00 | 94 | 1029.3 | |
| 20260831090516 | 71 | 0.0 | 0.0 | 0.00 | 0.00 | 0.00 | 94 | 1029.3 | |
| 20260831090016 | 71 | 0.0 | 0.0 | 0.00 | 0.00 | 0.00 | 94 | 1029.3 | |
| 20260831085516 | 71 | 0.0 | 0.0 | 0.00 | 0.00 | 0.00 | 94 | 1029.3 | |
| 20260831085016 | 71 | 0.0 | 0.0 | 0.00 | 0.00 | 0.00 | 94 | 1029.3 | |
| 20260831084516 | 71 | 0.0 | 0.0 | 0.00 | 0.00 | 0.00 | 94 | 1029.3 | |
| 20260831084016 | 71 | 0.0 | 0.0 | 0.00 | 0.00 | 0.00 | 94 | 1029.3 | |
| 20260831083516 | 71 | 0.0 | 0.0 | 0.00 | 0.00 | 0.00 | 94 | 1029.3 | |
| 20260831083016 | 71 | 0.0 | 0.0 | 0.00 | 0.00 | 0.00 | 94 | 1029.2 | |
| 20260831082516 | 71 | 0.0 | 0.0 | 0.00 | 0.00 | 0.00 | 94 | 1029.3 | |
| 20260831082056 | 71 | 0.0 | 0.0 | 0.00 | 0.00 | 0.00 | 94 | 1029.4 | |
| 20260831081516 | 71 | 0.0 | 0.0 | 0.00 | 0.00 | 0.00 | 94 | 1029.3 | |
| 20260831081016 | 71 | 0.0 | 0.0 | 0.00 | 0.00 | 0.00 | 94 | 1029.3 | |
| 20260831080516 | 71 | 0.0 | 0.0 | 0.00 | 0.00 | 0.00 | 94 | 1029.3 | |
| 20260831080036 | 71 | 0.0 | 0.0 | 0.00 | 0.00 | 0.00 | 94 | 1029.4 | |
| 20260831075516 | 71 | 0.0 | 0.0 | 0.00 | 0.00 | 0.00 | 94 | 1029.3 | |
| 20260831075016 | 71 | 0.0 | 0.0 | 0.00 | 0.00 | 0.00 | 94 | 1029.4 | |
| 20260831074516 | 71 | 0.0 | 0.0 | 0.00 | 0.00 | 0.00 | 94 | 1029.3 | |
| 20260831074016 | 71 | 0.0 | 0.0 | 0.00 | 0.00 | 0.00 | 94 | 1029.5 | |
| 20260831073516 | 71 | 0.0 | 0.0 | 0.00 | 0.00 | 0.00 | 94 | 1029.4 | |
| 20260831073016 | 71 | 0.0 | 0.0 | 0.00 | 0.00 | 0.00 | 94 | 1029.5 | |
| 20260831072516 | 71 | 0.0 | 1.0 | 0.00 | 0.00 | 0.00 | 94 | 1029.6 | |
| 20260831072036 | 71 | 0.0 | 0.0 | 0.00 | 0.00 | 0.00 | 94 | 1029.5 | |
| 20260831071536 | 71 | 0.0 | 0.0 | 0.00 | 0.00 | 0.00 | 94 | 1029.5 | |
| 20260831071016 | 71 | 0.0 | 0.0 | 0.00 | 0.00 | 0.00 | 94 | 1029.6 | |
| 20260831070516 | 71 | 0.0 | 0.0 | 0.00 | 0.00 | 0.00 | 94 | 1029.5 | |
| 20260831070016 | 71 | 0.0 | 0.0 | 0.00 | 0.00 | 0.00 | 94 | 1029.6 | |
| 20260831065536 | 71 | 0.0 | 0.0 | 0.00 | 0.00 | 0.00 | 94 | 1029.7 | |
| 20260831065016 | 71 | 0.0 | 0.0 | 0.00 | 0.00 | 0.00 | 94 | 1029.6 | |
| 20260831064516 | 71 | 0.0 | 0.0 | 0.00 | 0.00 | 0.00 | 94 | 1029.7 | |
| 20260831064036 | 71 | 0.0 | 0.0 | 0.00 | 0.00 | 0.00 | 94 | 1029.7 | |
| 20260831063516 | 71 | 0.0 | 0.0 | 0.00 | 0.00 | 0.00 | 94 | 1029.6 | |
| 20260831063016 | 71 | 0.0 | 0.0 | 0.00 | 0.00 | 0.00 | 94 | 1029.6 | |
| 20260831062516 | 71 | 0.0 | 0.0 | 0.00 | 0.00 | 0.00 | 94 | 1029.5 | |
| 20260831062036 | 71 | 0.0 | 0.0 | 0.00 | 0.00 | 0.00 | 94 | 1029.7 | |
| 20260831061516 | 71 | 0.0 | 0.0 | 0.00 | 0.00 | 0.00 | 93 | 1029.8 | |
| 20260831061036 | 71 | 0.0 | 0.0 | 0.00 | 0.00 | 0.00 | 93 | 1029.8 | |
| 20260831060516 | 71 | 0.0 | 0.0 | 0.00 | 0.00 | 0.00 | 93 | 1029.8 | |
| 20260831060016 | 71 | 0.0 | 0.0 | 0.00 | 0.00 | 0.00 | 93 | 1029.9 | |
| 20260831055516 | 71 | 0.0 | 0.0 | 0.00 | 0.00 | 0.00 | 93 | 1029.8 | |
| 20260831055036 | 71 | 0.0 | 0.0 | 0.00 | 0.00 | 0.00 | 93 | 1029.8 | |
| 20260831054536 | 71 | 0.0 | 0.0 | 0.00 | 0.00 | 0.00 | 93 | 1029.8 | |
| 20260831054016 | 72 | 0.0 | 0.0 | 0.00 | 0.00 | 0.00 | 93 | 1029.8 | |
| 20260831053536 | 72 | 0.0 | 0.0 | 0.00 | 0.00 | 0.00 | 93 | 1029.8 | |
| 20260831053016 | 72 | 0.0 | 0.0 | 0.00 | 0.00 | 0.00 | 93 | 1029.9 | |
| 20260831052516 | 72 | 0.0 | 0.0 | 0.00 | 0.00 | 0.00 | 93 | 1029.9 | |
| 20260831052016 | 72 | 0.0 | 1.0 | 0.00 | 0.00 | 0.00 | 93 | 1029.9 | |
| 20260831051516 | 72 | 143 | 0.0 | 0.0 | 0.00 | 0.00 | 0.00 | 93 | 1030.0 |
| 20260831051016 | 72 | 0.0 | 0.0 | 0.00 | 0.00 | 0.00 | 93 | 1029.9 | |
| 20260831050516 | 72 | 0.0 | 0.0 | 0.00 | 0.00 | 0.00 | 93 | 1029.9 | |
| 20260831050056 | 72 | 0.0 | 0.0 | 0.00 | 0.00 | 0.00 | 93 | 1030.1 | |
| 20260831045516 | 72 | 0.0 | 0.0 | 0.00 | 0.00 | 0.00 | 93 | 1030.1 | |
| 20260831045016 | 72 | 0.0 | 0.0 | 0.00 | 0.00 | 0.00 | 93 | 1030.2 | |
| 20260831044536 | 72 | 0.0 | 0.0 | 0.00 | 0.00 | 0.00 | 93 | 1030.2 | |
| 20260831044016 | 72 | 0.0 | 0.0 | 0.00 | 0.00 | 0.00 | 93 | 1030.1 | |
| 20260831043516 | 72 | 0.0 | 0.0 | 0.00 | 0.00 | 0.00 | 93 | 1030.1 | |
| 20260831043016 | 72 | 0.0 | 0.0 | 0.00 | 0.00 | 0.00 | 93 | 1030.1 | |
| 20260831042516 | 72 | 0.0 | 0.0 | 0.00 | 0.00 | 0.00 | 93 | 1030.1 | |
| 20260831042016 | 72 | 0.0 | 0.0 | 0.00 | 0.00 | 0.00 | 93 | 1030.1 | |
| 20260831041656 | 72 | 0.0 | 0.0 | 0.00 | 0.00 | 0.00 | 93 | 1030.1 | |
| 20260831041016 | 72 | 0.0 | 0.0 | 0.00 | 0.00 | 0.00 | 93 | 1030.2 | |
| 20260831040516 | 72 | 0.0 | 0.0 | 0.00 | 0.00 | 0.00 | 93 | 1030.3 | |
| 20260831040016 | 72 | 0.0 | 0.0 | 0.00 | 0.00 | 0.00 | 93 | 1030.4 | |
| 20260831035517 | 72 | 0.0 | 0.0 | 0.00 | 0.00 | 0.00 | 93 | 1030.2 | |
| 20260831035017 | 73 | 0.0 | 0.0 | 0.00 | 0.00 | 0.00 | 93 | 1030.2 | |
| 20260831034517 | 73 | 0.0 | 0.0 | 0.00 | 0.00 | 0.00 | 93 | 1030.4 | |
| 20260831034016 | 73 | 0.0 | 0.0 | 0.00 | 0.00 | 0.00 | 93 | 1030.4 | |
| 20260831033537 | 73 | 0.0 | 0.0 | 0.00 | 0.00 | 0.00 | 93 | 1030.5 | |
| 20260831033017 | 73 | 0.0 | 0.0 | 0.00 | 0.00 | 0.00 | 93 | 1030.5 | |
| 20260831032536 | 73 | 0.0 | 0.0 | 0.00 | 0.00 | 0.00 | 93 | 1030.4 | |
| 20260831032017 | 73 | 0.0 | 0.0 | 0.00 | 0.00 | 0.00 | 93 | 1030.5 | |
| 20260831031516 | 73 | 0.0 | 0.0 | 0.00 | 0.00 | 0.00 | 93 | 1030.5 | |
| 20260831031037 | 73 | 0.0 | 0.0 | 0.00 | 0.00 | 0.00 | 93 | 1030.4 | |
| 20260831030516 | 73 | 0.0 | 0.0 | 0.00 | 0.00 | 0.00 | 93 | 1030.4 | |
| 20260831030037 | 73 | 0.0 | 0.0 | 0.00 | 0.00 | 0.00 | 93 | 1030.4 | |
| 20260831025516 | 73 | 0.0 | 0.0 | 0.00 | 0.00 | 0.00 | 93 | 1030.4 | |
| 20260831025017 | 73 | 0.0 | 0.0 | 0.00 | 0.00 | 0.00 | 93 | 1030.4 | |
| 20260831024516 | 73 | 0.0 | 0.0 | 0.00 | 0.00 | 0.00 | 93 | 1030.5 | |
| 20260831024037 | 73 | 0.0 | 0.0 | 0.00 | 0.00 | 0.00 | 93 | 1030.3 | |
| 20260831023517 | 73 | 0.0 | 0.0 | 0.00 | 0.00 | 0.00 | 93 | 1030.4 | |
| 20260831023016 | 73 | 0.0 | 0.0 | 0.00 | 0.00 | 0.00 | 92 | 1030.5 | |
| 20260831022537 | 73 | 0.0 | 0.0 | 0.00 | 0.00 | 0.00 | 93 | 1030.5 | |
| 20260831022016 | 73 | 0.0 | 0.0 | 0.00 | 0.00 | 0.00 | 92 | 1030.5 | |
| 20260831021517 | 73 | 0.0 | 0.0 | 0.00 | 0.00 | 0.00 | 92 | 1030.4 | |
| 20260831021037 | 73 | 0.0 | 0.0 | 0.00 | 0.00 | 0.00 | 92 | 1030.5 | |
| 20260831020516 | 73 | 0.0 | 0.0 | 0.00 | 0.00 | 0.00 | 92 | 1030.5 | |
| 20260831020016 | 74 | 0.0 | 0.0 | 0.00 | 0.00 | 0.00 | 92 | 1030.4 | |
| 20260831015516 | 74 | 0.0 | 0.0 | 0.00 | 0.00 | 0.00 | 92 | 1030.4 | |
| 20260831015016 | 74 | 0.0 | 0.0 | 0.00 | 0.00 | 0.00 | 92 | 1030.4 | |
| 20260831014516 | 74 | 0.0 | 0.0 | 0.00 | 0.00 | 0.00 | 92 | 1030.4 | |
| 20260831014016 | 74 | 0.0 | 0.0 | 0.00 | 0.00 | 0.00 | 92 | 1030.4 | |
| 20260831013517 | 74 | 0.0 | 0.0 | 0.00 | 0.00 | 0.00 | 92 | 1030.3 | |
| 20260831013017 | 74 | 0.0 | 0.0 | 0.00 | 0.00 | 0.00 | 92 | 1030.5 | |
| 20260831012516 | 75 | 0.0 | 0.0 | 0.00 | 0.00 | 0.00 | 92 | 1030.5 | |
| 20260831012017 | 75 | 0.0 | 0.0 | 0.00 | 0.00 | 0.00 | 92 | 1030.4 | |
| 20260831011517 | 75 | 0.0 | 0.0 | 0.00 | 0.00 | 0.00 | 92 | 1030.4 | |
| 20260831011017 | 75 | 0.0 | 1.0 | 0.00 | 0.00 | 0.00 | 91 | 1030.3 | |
| 20260831010516 | 75 | 0.0 | 1.0 | 0.00 | 0.00 | 0.00 | 91 | 1030.2 | |
| 20260831010036 | 75 | 0.0 | 0.0 | 0.00 | 0.00 | 0.00 | 90 | 1030.1 | |
| 20260831005517 | 76 | 0.0 | 0.0 | 0.00 | 0.00 | 0.00 | 90 | 1029.9 | |
| 20260831005036 | 76 | 0.0 | 0.0 | 0.00 | 0.00 | 0.00 | 90 | 1029.9 | |
| 20260831004516 | 76 | 0.0 | 0.0 | 0.00 | 0.00 | 0.00 | 90 | 1029.9 | |
| 20260831004016 | 76 | 0.0 | 0.0 | 0.00 | 0.00 | 0.00 | 89 | 1029.9 | |
| 20260831003537 | 76 | 0.0 | 0.0 | 0.00 | 0.00 | 0.00 | 89 | 1029.7 | |
| 20260831003017 | 77 | 0.0 | 0.0 | 0.00 | 0.00 | 0.00 | 88 | 1029.7 | |
| 20260831002537 | 77 | 0.0 | 0.0 | 0.00 | 0.00 | 0.00 | 87 | 1029.7 | |
| 20260831002016 | 77 | 0.0 | 0.0 | 0.00 | 0.00 | 0.00 | 87 | 1029.4 | |
| 20260831001517 | 77 | 0.0 | 0.0 | 0.00 | 0.00 | 0.00 | 87 | 1029.4 | |
| 20260831001016 | 78 | 0.0 | 0.0 | 0.00 | 0.00 | 0.00 | 86 | 1029.3 | |
| 20260831000516 | 78 | 0.0 | 0.0 | 0.00 | 0.00 | 0.00 | 86 | 1029.4 | |
| 20260831000016 | 78 | 0.0 | 0.0 | 0.00 | 0.00 | 0.00 | 86 | 1029.4 |